Terminal Aerodrome Forecast
Issued by NWS Sterling, VA

Current Version | Previous Version | Graphics & Text | Print | Product List | Glossary On
Versions: 1 2 3 4 5 6 7 8 9 10 11 12 13 14 15 16
000
FTUS41 KLWX 131700
TAFMRB
TAF
KMRB 131733Z 1318/1418 19012G18KT P6SM SCT250
     FM140100 19008KT P6SM SCT250
     FM140900 19008KT P6SM BKN090
     FM141600 19016G24KT P6SM SCT050 BKN250=

USA.gov is the U.S. government's official web portal to all federal, state and local government web resources and services.